#timestamp,LO_Frequency,Hit,StdDev 
1636912815.3,286046974.5,N
1636912835.1,286046977.4,N
1636912855.8,286046980.3,N
1636912875.7,286046976.4,N
1636912895.5,286046976.1,N
1636912915.3,286046980.0,N
1636912935.2,286046985.2,N
1636912955.0,286046989.4,N
1636912955.9,286046989.4,N
1636912975.8,286046988.7,N
1636912995.6,286046996.6,N
1636913015.4,286047005.7,N
1636913035.3,286047009.9,N
1636913055.1,286047008.5,N
1636913075.9,286047004.5,N
1636913095.7,286047007.9,N
1636913115.5,286047007.7,N
1636913135.4,286047007.7,N
1636913155.2,286047009.5,N
1636913175.0,286047002.1,N
1636913175.9,286047002.1,N
1636913195.8,286047003.9,N
1636913215.6,286047008.9,N
1636913235.5,286047013.6,N
1636913255.3,286047013.1,N
1636913275.1,286047007.7,N
1636913295.9,286047005.7,N
1636913315.7,286046998.1,N
1636913335.5,286046995.6,N
1636913355.4,286046990.4,N
1636913375.2,286046993.8,N
1636913395.1,286047000.6,N
1636913396.0,286047000.6,N
1636913415.8,286046996.6,N
1636913435.6,286046998.0,N
1636913455.5,286046991.8,N
1636913475.3,286046993.5,N
1636913495.1,286047001.9,N
1636913515.9,286047003.2,N
1636913535.7,286047005.7,N
1636913555.6,286047005.5,N
1636913575.4,286047007.4,N
1636913595.2,286047005.3,N
1636913615.1,286047005.9,N
1636913616.0,286047005.9,N
1636913635.8,286047004.9,N
1636913655.6,286047003.1,N
1636913675.5,286046997.9,N
1636913695.3,286046994.8,N
1636913715.2,286046993.8,N
1636913735.9,286046996.0,N
1636913755.7,286046994.7,N
1636913775.6,286046993.5,N
1636913795.4,286046997.7,N
1636913815.2,286046995.1,N
1636913835.1,286046996.9,N
1636913836.0,286046996.9,N
1636913855.8,286046999.4,N
1636913875.7,286046995.1,N
1636913895.5,286046989.3,N
1636913915.3,286046986.6,N
1636913935.2,286046981.4,Y
1636913955.0,286046982.3,P
1636913955.9,286046982.3,N
1636913975.8,286046988.4,N
1636913995.6,286046993.1,N
1636914015.4,286046994.9,N
1636914035.3,286046998.1,N
1636914055.1,286046999.8,N
1636914075.8,286047000.3,N
1636914095.7,286047002.4,N
1636914115.5,286047003.9,N
1636914135.4,286047007.0,N
1636914155.2,286047008.2,N
1636914175.0,286047001.7,N
1636914175.9,286047001.7,N
1636914195.8,286047001.7,N
1636914215.6,286047002.4,N
1636914235.4,286047010.5,N
1636914255.3,286047015.4,N
1636914275.1,286047020.2,N
1636914295.9,286047019.8,N
1636914315.7,286047024.8,N
1636914335.5,286047027.7,N
1636914355.4,286047034.6,N
1636914375.2,286047041.3,Y
1636914395.1,286047043.0,P
1636914396.0,286047043.0,N
1636914415.8,286047046.6,N
1636914435.6,286047053.5,Y
1636914455.5,286047024.6,P
1636914475.3,286047028.5,P
1636914495.2,286047034.5,P
1636914515.9,286047032.0,Y
1636914535.7,286047003.4,P
1636914555.6,286047012.2,N
1636914575.4,286047019.6,N
1636914595.2,286047022.6,N
1636914615.1,286047026.6,N
1636914616.0,286047026.6,N
1636914635.8,286047033.4,Y
1636914655.7,286047017.8,P
1636914675.5,286047020.7,P
1636914695.3,286047020.7,P
1636914715.2,286047145.7,Y
1636914735.0,286046999.2,P
1636914735.9,286046999.2,N
1636914755.8,286046993.1,N
1636914775.6,286046987.2,N
1636914795.4,286046989.6,N
1636914815.3,286046992.5,N
1636914835.1,286046990.1,N
1636914855.9,286046987.0,N
1636914875.7,286046984.7,N
1636914895.5,286046980.7,N
1636914915.4,286046981.4,N
1636914935.2,286046986.7,N
1636914955.1,286046988.1,N
1636914956.0,286046988.1,N
1636914975.8,286046984.1,N
1636914995.6,286046986.7,N
1636915015.5,286046982.9,N
1636915035.3,286046968.7,Y
1636915055.3,286046971.8,P
1636915075.1,286046965.4,P
1636915095.9,286046953.3,P
1636915115.7,286046945.5,Y
1636915135.5,286046983.8,P
1636915155.4,286046986.8,N
1636915175.2,286046987.5,N
1636915195.1,286046990.9,N
1636915196.0,286046990.9,N
1636915215.8,286046995.1,N
1636915235.6,286046998.3,N
1636915255.5,286046999.2,N
1636915275.3,286046996.0,N
1636915295.1,286046999.1,N
1636915315.9,286047002.7,N
1636915335.7,286047004.2,N
1636915355.6,286047004.2,N
1636915375.4,286047002.4,N
1636915395.2,286046987.1,N
1636915415.1,286046983.1,N
1636915416.0,286046983.1,N
1636915435.8,286046977.3,N
1636915455.6,286046967.7,Y
1636915475.5,286046970.2,P
1636915495.3,286046963.2,P
1636915515.2,286046959.6,P
1636915535.9,286046965.5,N
1636915555.7,286046970.0,N
1636915575.6,286046966.1,Y
1636915595.4,286046994.2,P
1636915615.3,286046991.0,N
1636915635.1,286046991.8,N
1636915636.0,286046991.8,N
1636915655.8,286046998.7,N
1636915675.7,286047002.0,N
1636915695.5,286046998.9,N
1636915715.3,286046998.1,N
1636915735.2,286047000.2,N
1636915755.0,286046995.8,N
1636915755.9,286046995.8,N
1636915775.8,286046998.0,N
1636915795.6,286047002.0,N
1636915815.4,286047001.9,N
1636915835.3,286047004.5,N
1636915855.1,286047009.1,N
1636915875.8,286047010.6,N
1636915895.7,286047013.6,N
1636915915.5,286047015.5,N
1636915935.4,286047015.0,N
1636915955.2,286047014.5,N
1636915975.0,286047018.1,N
1636915975.9,286047018.1,N
1636915995.8,286047021.4,N
1636916015.6,286047022.2,N
1636916035.4,286047019.3,N
1636916055.3,286047019.7,N
1636916075.1,286047013.8,N
1636916095.9,286047008.6,N
1636916115.7,286047014.7,N
1636916135.5,286047014.2,N
1636916155.4,286047012.3,N
1636916175.2,286047010.0,N
1636916195.1,286047014.2,N
1636916196.0,286047014.2,N
1636916215.8,286047020.6,N
1636916235.6,286047028.2,Y
1636916255.5,286047017.8,P
1636916275.3,286047017.1,P
1636916295.1,286047017.5,P
1636916315.9,286047019.5,Y
1636916335.7,286047007.5,P
1636916355.6,286047004.9,N
1636916375.4,286047009.0,N
1636916395.2,286047009.8,N
